Flag for Germany Weather past 2 weeks in Bretten, Baden-Württemberg, Germany

Now
70 °F

Passing clouds.


Feels Like: 70 °F
Forecast: 41 / 62 °F
Wind: 6 mph from Northwest

Location: Baden Wurttemberg - Neuostheim

Current Time: Apr 21, 2015 at 2:15:56 PM

Latest Report: Apr 21, 2015 at 1:50 PM


Visibility: N/A

Pressure: 30.39 "Hg

Humidity: 33%

Dew point: 39 °F

Location of BrettenLocation

Historic Weather in Bretten — Graph

°F

Bretten temperature yesterday

Maximum temperature yesterday: 68 °F (at 4:20 PM)
Minimum temperature yesterday: 43 °F (at 6:20 AM)
Average temperature yesterday: 59 °F

Past Weeks' High & Low Weather Summary

 TemperatureHumidityPressure
High79 °F (Apr 15, 4:20 PM)93% (Apr 9, 7:20 AM)30.63 "Hg (Apr 9, 7:20 AM)
Low30 °F (Apr 7, 6:50 AM)19% (Apr 15, 8:20 PM)29.86 "Hg (Apr 16, 5:20 PM)
Average57 °F48%30.26 "Hg
* Reported Apr 6 12:20 PM — Apr 21 12:50 PM, Bretten, Weather by CustomWeather, © 2015

Note: Actual official high and low records may vary slightly from our data, if they occured in-between our weather recording intervals... More about our weather records

Advertising

Bretten weather history for previous 24 hours

 ConditionsComfort  
Time TempWeatherWind HumidityBarometerVisibility
12:50 PM
Tue, Apr 21
66 °FPassing clouds.7 mph30%30.39 "HgN/A
12:20 PM64 °FSunny.3 mph34%30.39 "Hg10 mi
11:50 AM63 °FPassing clouds.5 mph39%30.42 "HgN/A
11:20 AM63 °FSunny.3 mph42%30.42 "Hg10 mi
10:50 AM61 °FPassing clouds.5 mph45%30.42 "HgN/A
10:20 AM59 °FSunny.2 mph48%30.42 "Hg10 mi
9:50 AM57 °FSunny.1 mph51%30.39 "Hg10 mi
9:20 AM55 °FSunny.1 mph55%30.39 "Hg10 mi
8:50 AM54 °FSunny.2 mph58%30.39 "Hg10 mi
8:20 AM52 °FSunny.2 mph62%30.39 "Hg10 mi
7:50 AM52 °FSunny.No wind62%30.39 "Hg10 mi
7:20 AM48 °FClear.2 mph66%30.36 "Hg10 mi
6:50 AM46 °FClear.3 mph71%30.36 "Hg10 mi
6:20 AM46 °FClear.3 mph71%30.36 "Hg10 mi
5:50 AM46 °FClear.2 mph71%30.36 "Hg10 mi
9:20 PM
Mon, Apr 20
61 °FSunny.5 mph34%30.27 "Hg10 mi
8:50 PM63 °FSunny.6 mph32%30.27 "Hg10 mi
8:20 PM63 °FSunny.6 mph32%30.27 "Hg10 mi
7:50 PM66 °FPassing clouds.7 mph28%30.24 "HgN/A
7:20 PM66 °FPassing clouds.8 mph28%30.24 "HgN/A
6:50 PM66 °FSunny.10 mph28%30.24 "Hg10 mi
6:20 PM68 °FPassing clouds.9 mph28%30.24 "HgN/A
5:50 PM68 °FPassing clouds.7 mph28%30.24 "HgN/A
5:20 PM66 °FPassing clouds.8 mph28%30.24 "HgN/A
4:50 PM66 °FPassing clouds.8 mph26%30.24 "HgN/A
4:20 PM68 °FPassing clouds.9 mph26%30.27 "HgN/A
3:50 PM66 °FPassing clouds.10 mph26%30.27 "HgN/A
3:20 PM66 °FPassing clouds.9 mph26%30.27 "HgN/A
2:50 PM66 °FPassing clouds.9 mph28%30.27 "HgN/A
2:20 PM64 °FPassing clouds.10 mph26%30.27 "HgN/A
Weather by CustomWeather, © 2015

See weather overviewHow to use our weather pages